QPF
0.02 0.02 0.02 0.01 0.01 0.01 0.02 0.02 0.02 0.01 0.01 0.00 0.01 0.00 0.00 0.00 0.00 0.00 0.00 0.02 0.04 0.06 0.05 0.05 0.04 0.04 0.03 0.03 0.04 0.03 0.02 0.02 0.02 0.02 0.03 0.04 0.04 0.05 0.05 0.04 0.04 0.03 0.03
0.02 0.01 0.01 0.01 0.01 0.01 0.02 0.03 0.01 0.00 0.00 0.00 0.01 0.01 0.01 0.00 0.00 0.00 0.00 0.00 0.01 0.02 0.02 0.03 0.04 0.04 0.04 0.03 0.03 0.03 0.02 0.02 0.02 0.03 0.02 0.03 0.03 0.03 0.03 0.03 0.04 0.04 0.04
0.01 0.00 0.00 0.01 0.01 0.01 0.01 0.02 0.01 0.00 0.00 0.00 0.01 0.01 0.01 0.00 0.00 0.00 0.00 0.00 0.00 0.00 0.01 0.01 0.03 0.04 0.04 0.04 0.04 0.03 0.03 0.02 0.02 0.02 0.02 0.03 0.04 0.04 0.05 0.05 0.05 0.05 0.06
0.01 0.00 0.01 0.01 0.01 0.01 0.02 0.02 0.01 0.01 0.00 0.00 0.00 0.01 0.01 0.01 0.01 0.00 0.00 0.00 0.00 0.00 0.01 0.01 0.02 0.04 0.06 0.05 0.04 0.04 0.03 0.02 0.02 0.02 0.02 0.03 0.04 0.04 0.05 0.06 0.06 0.05 0.05
0.01 0.01 0.01 0.01 0.01 0.01 0.02 0.01 0.01 0.00 0.00 0.00 0.00 0.00 0.01 0.01 0.01 0.00 0.00 0.00 0.01 0.01 0.00 0.00 0.01 0.03 0.05 0.05 0.03 0.03 0.03 0.03 0.02 0.02 0.02 0.02 0.03 0.03 0.03 0.04 0.05 0.05 0.05
0.01 0.00 0.01 0.01 0.01 0.01 0.01 0.01 0.01 0.00 0.00 0.00 0.00 0.00 0.01 0.01 0.01 0.01 0.00 0.01 0.01 0.01 0.01 0.01 0.01 0.03 0.06 0.03 0.03 0.04 0.03 0.03 0.03 0.02 0.02 0.02 0.02 0.02 0.02 0.03 0.04 0.05 0.07
0.01 0.01 0.01 0.01 0.01 0.01 0.01 0.02 0.01 0.00 0.00 0.00 0.00 0.00 0.00 0.01 0.01 0.01 0.01 0.01 0.01 0.01 0.01 0.01 0.02 0.03 0.04 0.02 0.02 0.03 0.03 0.03 0.03 0.03 0.02 0.02 0.02 0.02 0.02 0.03 0.04 0.04 0.05
0.02 0.01 0.01 0.01 0.01 0.01 0.01 0.01 0.00 0.00 0.00 0.00 0.00 0.00 0.00 0.01 0.01 0.01 0.01 0.01 0.00 0.00 0.01 0.01 0.01 0.02 0.03 0.02 0.02 0.02 0.02 0.02 0.02 0.02 0.03 0.03 0.02 0.02 0.02 0.03 0.04 0.05 0.06
0.02 0.01 0.02 0.01 0.01 0.01 0.01 0.00 0.00 0.00 0.00 0.00 0.00 0.00 0.00 0.01 0.00 0.01 0.02 0.02 0.01 0.01 0.00 0.01 0.01 0.01 0.03 0.01 0.01 0.01 0.00 0.01 0.02 0.02 0.03 0.04 0.04 0.04 0.03 0.03 0.04 0.06 0.05
0.01 0.02 0.01 0.01 0.01 0.01 0.01 0.00 0.01 0.01 0.01 0.00 0.00 0.00 0.00 0.01 0.01 0.01 0.02 0.02 0.02 0.01 0.01 0.01 0.01 0.01 0.03 0.03 0.01 0.01 0.01 0.01 0.01 0.02 0.04 0.05 0.04 0.04 0.04 0.04 0.04 0.04 0.05
0.01 0.01 0.01 0.01 0.01 0.01 0.01 0.01 0.01 0.01 0.01 0.01 0.00 0.00 0.00 0.00 0.01 0.01 0.01 0.02 0.02 0.01 0.01 0.02 0.01 0.01 0.01 0.01 0.01 0.01 0.01 0.01 0.01 0.02 0.03 0.03 0.03 0.03 0.03 0.03 0.03 0.03 0.05
0.01 0.01 0.02 0.02 0.01 0.00 0.00 0.01 0.01 0.01 0.01 0.01 0.01 0.00 0.00 0.00 0.00 0.01 0.01 0.02 0.02 0.01 0.01 0.02 0.02 0.01 0.00 0.00 0.01 0.01 0.00 0.00 0.00 0.01 0.01 0.02 0.03 0.03 0.03 0.03 0.03 0.03 0.04
0.01 0.02 0.02 0.02 0.01 0.00 0.00 0.00 0.00 0.00 0.01 0.01 0.01 0.01 0.01 0.00 0.00 0.01 0.02 0.02 0.01 0.01 0.01 0.02 0.01 0.01 0.01 0.00 0.00 0.01 0.01 0.00 0.00 0.00 0.01 0.02 0.02 0.02 0.04 0.04 0.03 0.04 0.05
0.01 0.01 0.01 0.01 0.02 0.02 0.01 0.01 0.00 0.00 0.01 0.01 0.01 0.01 0.01 0.01 0.01 0.01 0.02 0.02 0.01 0.01 0.01 0.01 0.01 0.01 0.01 0.01 0.00 0.01 0.01 0.01 0.00 0.01 0.02 0.02 0.02 0.03 0.05 0.04 0.03 0.04 0.05
0.02 0.01 0.01 0.01 0.02 0.02 0.03 0.02 0.01 0.00 0.00 0.00 0.00 0.00 0.01 0.01 0.01 0.02 0.02 0.03 0.02 0.01 0.01 0.01 0.01 0.01 0.01 0.01 0.01 0.01 0.01 0.02 0.01 0.01 0.02 0.02 0.03 0.03 0.04 0.02 0.02 0.02 0.02
0.03 0.02 0.01 0.01 0.02 0.03 0.03 0.03 0.03 0.02 0.01 0.00 0.00 0.00 0.00 0.01 0.01 0.02 0.03 0.03 0.03 0.02 0.01 0.02 0.02 0.01 0.01 0.01 0.02 0.02 0.02 0.02 0.02 0.02 0.01 0.01 0.01 0.01 0.02 0.02 0.01 0.01 0.01
0.03 0.03 0.02 0.01 0.02 0.02 0.03 0.03 0.03 0.03 0.02 0.01 0.01 0.01 0.00 0.00 0.01 0.01 0.03 0.04 0.03 0.03 0.02 0.02 0.02 0.02 0.02 0.02 0.02 0.02 0.01 0.01 0.01 0.01 0.01 0.01 0.00 0.00 0.01 0.02 0.02 0.02 0.01
0.02 0.03 0.02 0.01 0.01 0.02 0.02 0.03 0.02 0.02 0.02 0.02 0.02 0.01 0.01 0.01 0.01 0.01 0.04 0.05 0.03 0.02 0.02 0.02 0.02 0.02 0.02 0.02 0.01 0.01 0.01 0.01 0.01 0.01 0.01 0.01 0.00 0.00 0.01 0.01 0.01 0.02 0.02
0.02 0.02 0.01 0.01 0.01 0.01 0.02 0.03 0.03 0.03 0.02 0.02 0.02 0.02 0.02 0.01 0.01 0.01 0.03 0.05 0.03 0.03 0.03 0.02 0.02 0.02 0.02 0.01 0.01 0.01 0.01 0.00 0.01 0.01 0.01 0.01 0.00 0.00 0.00 0.01 0.01 0.01 0.01
0.02 0.02 0.01 0.01 0.01 0.01 0.01 0.02 0.03 0.04 0.04 0.03 0.03 0.03 0.02 0.02 0.01 0.01 0.03 0.05 0.04 0.04 0.04 0.03 0.02 0.02 0.02 0.02 0.01 0.01 0.01 0.01 0.00 0.01 0.01 0.01 0.01 0.00 0.00 0.00 0.00 0.00 0.00
0.02 0.02 0.02 0.01 0.01 0.01 0.01 0.02 0.02 0.03 0.03 0.04 0.04 0.03 0.03 0.03 0.04 0.04 0.04 0.05 0.04 0.03 0.04 0.03 0.02 0.02 0.02 0.02 0.02 0.01 0.01 0.01 0.00 0.00 0.00 0.00 0.01 0.00 0.01 0.01 0.01 0.01 0.00
0.04 0.03 0.02 0.02 0.02 0.02 0.02 0.03 0.02 0.02 0.02 0.03 0.04 0.04 0.04 0.04 0.04 0.05 0.04 0.06 0.06 0.03 0.03 0.02 0.02 0.02 0.02 0.02 0.02 0.02 0.01 0.01 0.00 0.00 0.00 0.00 0.00 0.00 0.00 0.00 0.01 0.01 0.01
0.05 0.05 0.04 0.04 0.03 0.03 0.03 0.03 0.03 0.03 0.03 0.03 0.03 0.04 0.03 0.04 0.04 0.04 0.04 0.04 0.05 0.04 0.03 0.02 0.02 0.02 0.02 0.02 0.02 0.01 0.01 0.01 0.01 0.01 0.00 0.00 0.00 0.00 0.00 0.00 0.01 0.01 0.01
0.05 0.05 0.05 0.05 0.04 0.03 0.03 0.03 0.03 0.03 0.03 0.03 0.03 0.04 0.04 0.04 0.04 0.04 0.03 0.03 0.02 0.03 0.03 0.03 0.02 0.02 0.03 0.03 0.02 0.02 0.01 0.01 0.01 0.01 0.01 0.01 0.00 0.00 0.00 0.00 0.00 0.01 0.01
0.03 0.03 0.04 0.04 0.04 0.04 0.03 0.03 0.03 0.02 0.02 0.02 0.03 0.03 0.03 0.04 0.05 0.05 0.03 0.02 0.03 0.02 0.02 0.02 0.03 0.02 0.02 0.03 0.03 0.02 0.01 0.01 0.01 0.02 0.02 0.02 0.01 0.01 0.01 0.01 0.01 0.01 0.01
0.02 0.02 0.02 0.03 0.02 0.03 0.03 0.03 0.02 0.02 0.02 0.02 0.02 0.03 0.03 0.04 0.05 0.05 0.04 0.03 0.02 0.02 0.02 0.02 0.02 0.02 0.02 0.02 0.03 0.03 0.02 0.01 0.01 0.02 0.02 0.02 0.02 0.02 0.01 0.01 0.01 0.01 0.01
MSLP
1011.69 1011.67 1011.62 1011.55 1011.47 1011.42 1011.38 1011.37 1011.37 1011.36 1011.33 1011.26 1011.16 1011.02 1010.88 1010.74 1010.63 1010.56 1010.54 1010.56 1010.62 1010.71 1010.81 1010.90 1010.99 1011.05 1011.09 1011.13 1011.16 1011.19 1011.23 1011.28 1011.34 1011.41 1011.47 1011.52 1011.56 1011.57 1011.56 1011.54 1011.51 1011.49 1011.46
1011.90 1011.86 1011.80 1011.71 1011.64 1011.58 1011.53 1011.50 1011.47 1011.43 1011.35 1011.23 1011.08 1010.89 1010.68 1010.49 1010.32 1010.20 1010.14 1010.15 1010.20 1010.29 1010.40 1010.51 1010.60 1010.67 1010.71 1010.73 1010.74 1010.76 1010.79 1010.84 1010.90 1010.99 1011.08 1011.16 1011.22 1011.26 1011.27 1011.26 1011.24 1011.21 1011.17
1012.07 1012.00 1011.91 1011.83 1011.75 1011.70 1011.65 1011.61 1011.56 1011.49 1011.38 1011.22 1011.01 1010.77 1010.51 1010.26 1010.04 1009.87 1009.77 1009.73 1009.76 1009.84 1009.94 1010.04 1010.14 1010.20 1010.23 1010.25 1010.24 1010.24 1010.26 1010.30 1010.37 1010.47 1010.58 1010.68 1010.77 1010.83 1010.87 1010.88 1010.87 1010.86 1010.84
1012.24 1012.14 1012.04 1011.96 1011.89 1011.84 1011.80 1011.76 1011.70 1011.60 1011.46 1011.26 1011.02 1010.74 1010.44 1010.15 1009.88 1009.66 1009.51 1009.42 1009.41 1009.44 1009.52 1009.60 1009.68 1009.73 1009.75 1009.74 1009.72 1009.70 1009.70 1009.72 1009.78 1009.86 1009.97 1010.08 1010.19 1010.27 1010.34 1010.38 1010.41 1010.43 1010.44
1012.45 1012.32 1012.22 1012.15 1012.10 1012.06 1012.03 1011.98 1011.91 1011.80 1011.64 1011.42 1011.16 1010.86 1010.54 1010.21 1009.91 1009.65 1009.44 1009.31 1009.24 1009.22 1009.25 1009.29 1009.33 1009.35 1009.35 1009.32 1009.27 1009.22 1009.18 1009.16 1009.18 1009.23 1009.31 1009.41 1009.51 1009.61 1009.70 1009.78 1009.84 1009.91 1009.96
1012.73 1012.59 1012.50 1012.43 1012.40 1012.38 1012.35 1012.31 1012.23 1012.11 1011.93 1011.71 1011.45 1011.15 1010.82 1010.50 1010.18 1009.89 1009.65 1009.46 1009.33 1009.25 1009.22 1009.21 1009.20 1009.18 1009.14 1009.07 1008.98 1008.87 1008.78 1008.70 1008.66 1008.65 1008.68 1008.74 1008.81 1008.90 1009.00 1009.11 1009.22 1009.33 1009.43
1013.08 1012.95 1012.87 1012.83 1012.82 1012.81 1012.79 1012.74 1012.65 1012.52 1012.35 1012.14 1011.89 1011.62 1011.32 1011.01 1010.71 1010.41 1010.15 1009.92 1009.73 1009.59 1009.49 1009.41 1009.34 1009.27 1009.17 1009.05 1008.91 1008.75 1008.58 1008.43 1008.30 1008.21 1008.16 1008.15 1008.18 1008.24 1008.33 1008.45 1008.59 1008.74 1008.88
1013.51 1013.41 1013.35 1013.33 1013.34 1013.34 1013.31 1013.26 1013.17 1013.03 1012.87 1012.68 1012.47 1012.24 1011.99 1011.74 1011.46 1011.19 1010.91 1010.66 1010.42 1010.22 1010.05 1009.90 1009.77 1009.63 1009.47 1009.30 1009.09 1008.86 1008.61 1008.37 1008.15 1007.97 1007.82 1007.73 1007.70 1007.71 1007.78 1007.88 1008.03 1008.19 1008.36
1014.02 1013.95 1013.92 1013.93 1013.94 1013.94 1013.92 1013.85 1013.75 1013.62 1013.47 1013.31 1013.15 1012.98 1012.80 1012.61 1012.39 1012.15 1011.88 1011.61 1011.34 1011.08 1010.84 1010.62 1010.42 1010.22 1010.00 1009.76 1009.49 1009.19 1008.87 1008.54 1008.23 1007.95 1007.71 1007.53 1007.42 1007.38 1007.39 1007.47 1007.59 1007.75 1007.91
1014.60 1014.56 1014.57 1014.59 1014.61 1014.61 1014.57 1014.49 1014.37 1014.24 1014.11 1013.99 1013.88 1013.78 1013.68 1013.56 1013.40 1013.19 1012.94 1012.66 1012.36 1012.05 1011.75 1011.47 1011.19 1010.92 1010.65 1010.35 1010.02 1009.66 1009.27 1008.87 1008.48 1008.12 1007.80 1007.54 1007.36 1007.25 1007.21 1007.24 1007.31 1007.43 1007.55
1015.23 1015.23 1015.26 1015.30 1015.32 1015.30 1015.24 1015.14 1015.02 1014.89 1014.77 1014.68 1014.62 1014.59 1014.55 1014.49 1014.39 1014.22 1013.98 1013.69 1013.36 1013.00 1012.65 1012.30 1011.96 1011.63 1011.30 1010.95 1010.57 1010.16 1009.72 1009.27 1008.83 1008.40 1008.03 1007.71 1007.46 1007.29 1007.19 1007.15 1007.17 1007.22 1007.28
1015.90 1015.93 1015.98 1016.02 1016.03 1015.99 1015.91 1015.79 1015.65 1015.52 1015.42 1015.35 1015.34 1015.34 1015.36 1015.34 1015.28 1015.13 1014.90 1014.59 1014.23 1013.83 1013.42 1013.01 1012.61 1012.23 1011.85 1011.45 1011.03 1010.59 1010.12 1009.64 1009.15 1008.70 1008.28 1007.92 1007.63 1007.41 1007.25 1007.15 1007.10 1007.07 1007.06
1016.56 1016.62 1016.68 1016.72 1016.71 1016.66 1016.56 1016.42 1016.26 1016.12 1016.02 1015.98 1015.98 1016.02 1016.05 1016.06 1016.00 1015.86 1015.62 1015.29 1014.89 1014.44 1013.98 1013.52 1013.08 1012.64 1012.22 1011.78 1011.33 1010.86 1010.37 1009.87 1009.37 1008.90 1008.46 1008.08 1007.76 1007.50 1007.30 1007.14 1007.02 1006.92 1006.83
1017.20 1017.28 1017.34 1017.37 1017.35 1017.28 1017.16 1017.00 1016.83 1016.68 1016.58 1016.53 1016.54 1016.57 1016.61 1016.61 1016.54 1016.37 1016.11 1015.74 1015.31 1014.83 1014.32 1013.82 1013.33 1012.86 1012.39 1011.92 1011.44 1010.94 1010.43 1009.91 1009.40 1008.92 1008.48 1008.09 1007.76 1007.47 1007.23 1007.03 1006.85 1006.69 1006.53
1017.77 1017.87 1017.93 1017.95 1017.92 1017.83 1017.69 1017.52 1017.34 1017.18 1017.07 1017.01 1016.99 1017.01 1017.02 1016.99 1016.89 1016.69 1016.38 1015.99 1015.52 1015.00 1014.47 1013.93 1013.41 1012.90 1012.39 1011.89 1011.37 1010.84 1010.30 1009.75 1009.22 1008.73 1008.28 1007.89 1007.54 1007.25 1006.99 1006.75 1006.53 1006.32 1006.12
1018.27 1018.38 1018.44 1018.46 1018.42 1018.32 1018.16 1017.98 1017.79 1017.62 1017.49 1017.40 1017.36 1017.34 1017.30 1017.22 1017.07 1016.82 1016.48 1016.06 1015.56 1015.02 1014.47 1013.91 1013.37 1012.83 1012.29 1011.74 1011.18 1010.60 1010.02 1009.43 1008.87 1008.35 1007.88 1007.47 1007.12 1006.81 1006.54 1006.29 1006.04 1005.80 1005.57
1018.69 1018.80 1018.86 1018.88 1018.83 1018.72 1018.57 1018.38 1018.18 1017.99 1017.84 1017.72 1017.64 1017.56 1017.47 1017.34 1017.14 1016.84 1016.47 1016.01 1015.50 1014.96 1014.40 1013.84 1013.28 1012.72 1012.15 1011.56 1010.95 1010.31 1009.66 1009.01 1008.39 1007.82 1007.32 1006.88 1006.50 1006.18 1005.90 1005.65 1005.40 1005.15 1004.90
1019.03 1019.14 1019.22 1019.23 1019.18 1019.07 1018.91 1018.72 1018.51 1018.31 1018.14 1017.99 1017.86 1017.73 1017.58 1017.38 1017.13 1016.79 1016.39 1015.92 1015.41 1014.87 1014.32 1013.76 1013.21 1012.63 1012.03 1011.40 1010.73 1010.02 1009.30 1008.57 1007.88 1007.24 1006.68 1006.20 1005.79 1005.46 1005.17 1004.90 1004.66 1004.41 1004.17
1019.30 1019.43 1019.51 1019.53 1019.48 1019.37 1019.22 1019.02 1018.81 1018.59 1018.39 1018.21 1018.03 1017.85 1017.64 1017.40 1017.09 1016.72 1016.30 1015.82 1015.31 1014.79 1014.26 1013.72 1013.16 1012.58 1011.96 1011.29 1010.56 1009.78 1008.97 1008.17 1007.39 1006.68 1006.05 1005.51 1005.07 1004.71 1004.41 1004.15 1003.91 1003.67 1003.44
1019.54 1019.68 1019.76 1019.78 1019.75 1019.65 1019.49 1019.30 1019.08 1018.85 1018.62 1018.40 1018.18 1017.95 1017.70 1017.40 1017.05 1016.65 1016.21 1015.73 1015.23 1014.72 1014.21 1013.68 1013.14 1012.56 1011.92 1011.21 1010.43 1009.59 1008.72 1007.83 1006.98 1006.18 1005.49 1004.90 1004.41 1004.02 1003.71 1003.45 1003.21 1002.99 1002.77
1019.74 1019.89 1019.99 1020.02 1019.99 1019.90 1019.75 1019.55 1019.33 1019.08 1018.84 1018.59 1018.33 1018.05 1017.75 1017.41 1017.03 1016.60 1016.14 1015.65 1015.15 1014.66 1014.15 1013.64 1013.10 1012.52 1011.87 1011.14 1010.33 1009.45 1008.51 1007.57 1006.65 1005.79 1005.04 1004.39 1003.87 1003.45 1003.12 1002.85 1002.62 1002.40 1002.19
1019.92 1020.09 1020.20 1020.24 1020.22 1020.14 1019.99 1019.79 1019.56 1019.30 1019.04 1018.76 1018.47 1018.16 1017.82 1017.44 1017.02 1016.56 1016.08 1015.58 1015.08 1014.57 1014.07 1013.56 1013.02 1012.44 1011.78 1011.04 1010.21 1009.30 1008.34 1007.36 1006.40 1005.50 1004.70 1004.01 1003.45 1003.00 1002.65 1002.36 1002.12 1001.90 1001.69
1020.09 1020.27 1020.39 1020.46 1020.45 1020.37 1020.22 1020.02 1019.78 1019.51 1019.22 1018.92 1018.60 1018.26 1017.89 1017.49 1017.04 1016.55 1016.04 1015.52 1014.99 1014.47 1013.95 1013.42 1012.87 1012.28 1011.62 1010.88 1010.05 1009.14 1008.17 1007.18 1006.20 1005.28 1004.45 1003.73 1003.14 1002.65 1002.27 1001.96 1001.70 1001.47 1001.25
1020.25 1020.45 1020.59 1020.66 1020.66 1020.58 1020.43 1020.22 1019.97 1019.69 1019.39 1019.07 1018.74 1018.38 1017.99 1017.56 1017.09 1016.58 1016.04 1015.48 1014.92 1014.36 1013.81 1013.25 1012.68 1012.07 1011.41 1010.66 1009.84 1008.95 1007.99 1007.01 1006.04 1005.11 1004.26 1003.52 1002.89 1002.37 1001.94 1001.59 1001.30 1001.04 1000.80
1020.43 1020.64 1020.79 1020.87 1020.87 1020.78 1020.62 1020.40 1020.14 1019.85 1019.54 1019.22 1018.88 1018.51 1018.12 1017.68 1017.19 1016.65 1016.08 1015.49 1014.89 1014.29 1013.69 1013.09 1012.49 1011.86 1011.18 1010.44 1009.63 1008.76 1007.83 1006.87 1005.91 1004.98 1004.12 1003.35 1002.68 1002.10 1001.62 1001.22 1000.87 1000.57 1000.30
1020.63 1020.86 1021.01 1021.09 1021.07 1020.97 1020.79 1020.56 1020.29 1019.99 1019.68 1019.36 1019.02 1018.67 1018.28 1017.84 1017.35 1016.81 1016.22 1015.59 1014.95 1014.30 1013.66 1013.02 1012.37 1011.71 1011.02 1010.28 1009.48 1008.62 1007.72 1006.78 1005.83 1004.90 1004.03 1003.22 1002.50 1001.86 1001.31 1000.83 1000.42 1000.07 999.76
Thickness
5725 5724 5724 5723 5723 5723 5723 5722 5722 5721 5720 5720 5719 5718 5717 5717 5717 5717 5717 5717 5717 5717 5717 5717 5717 5716 5716 5716 5716 5716 5716 5716 5716 5716 5716 5715 5715 5715 5715 5714 5714 5714 5714
5722 5721 5720 5720 5719 5719 5719 5719 5718 5717 5716 5716 5714 5714 5713 5712 5712 5711 5711 5711 5711 5712 5712 5712 5712 5712 5712 5711 5711 5711 5711 5711 5711 5711 5710 5710 5710 5710 5710 5710 5710 5710 5710
5720 5719 5717 5716 5716 5716 5715 5715 5714 5714 5712 5711 5710 5709 5708 5708 5707 5706 5706 5706 5706 5706 5706 5706 5707 5707 5707 5706 5706 5706 5706 5706 5706 5706 5705 5705 5705 5705 5705 5705 5705 5706 5706
5718 5716 5715 5713 5713 5712 5711 5710 5709 5708 5706 5705 5704 5704 5704 5703 5702 5702 5701 5701 5700 5700 5701 5701 5701 5702 5702 5702 5701 5701 5701 5701 5701 5701 5700 5700 5700 5700 5700 5701 5701 5701 5701
5715 5713 5712 5710 5710 5709 5707 5706 5704 5703 5701 5700 5700 5699 5699 5698 5698 5697 5697 5696 5695 5695 5695 5695 5696 5696 5696 5697 5697 5696 5696 5696 5696 5696 5695 5695 5695 5695 5696 5696 5697 5697 5697
5711 5710 5708 5707 5706 5704 5702 5701 5700 5699 5697 5696 5696 5694 5693 5693 5693 5692 5692 5691 5690 5690 5690 5690 5690 5690 5691 5691 5692 5692 5691 5691 5691 5691 5690 5690 5690 5691 5691 5692 5692 5692 5692
5708 5707 5705 5703 5702 5700 5698 5697 5695 5693 5692 5692 5689 5686 5687 5688 5687 5686 5686 5686 5685 5685 5685 5685 5685 5685 5686 5686 5687 5687 5687 5687 5687 5686 5686 5686 5686 5686 5686 5687 5687 5687 5687
5705 5703 5701 5699 5697 5696 5694 5693 5691 5688 5687 5686 5682 5677 5674 5676 5679 5681 5680 5680 5680 5680 5680 5680 5680 5680 5680 5681 5681 5681 5682 5682 5682 5682 5682 5681 5681 5681 5681 5681 5682 5682 5682
5701 5700 5698 5696 5694 5692 5689 5688 5687 5684 5680 5680 5680 5675 5668 5665 5668 5672 5674 5674 5674 5674 5675 5675 5675 5675 5675 5675 5676 5676 5677 5677 5677 5677 5677 5677 5677 5677 5677 5677 5677 5677 5677
5698 5696 5694 5693 5690 5688 5686 5685 5683 5681 5678 5675 5675 5674 5672 5669 5663 5662 5665 5668 5669 5669 5670 5671 5670 5671 5670 5670 5671 5671 5671 5672 5672 5672 5672 5672 5672 5672 5672 5672 5672 5672 5672
5694 5693 5691 5689 5687 5685 5683 5681 5680 5677 5675 5672 5670 5669 5667 5665 5663 5659 5656 5659 5661 5664 5665 5665 5665 5666 5666 5666 5666 5666 5667 5667 5667 5667 5667 5667 5667 5667 5667 5667 5667 5667 5667
5689 5688 5687 5685 5683 5681 5679 5678 5676 5674 5672 5669 5667 5666 5664 5661 5659 5656 5653 5652 5653 5656 5659 5660 5660 5661 5661 5661 5662 5662 5662 5662 5662 5662 5662 5662 5662 5662 5662 5662 5662 5661 5661
5683 5683 5683 5681 5679 5678 5676 5674 5672 5670 5668 5666 5664 5662 5661 5660 5659 5656 5652 5649 5649 5650 5653 5654 5655 5656 5657 5657 5657 5657 5657 5657 5656 5656 5656 5656 5656 5656 5656 5656 5656 5656 5656
5681 5680 5679 5677 5676 5674 5672 5670 5668 5666 5665 5663 5661 5659 5658 5658 5657 5655 5652 5648 5644 5644 5645 5648 5650 5651 5652 5652 5652 5652 5652 5652 5651 5651 5651 5651 5651 5651 5650 5651 5651 5650 5650
5678 5676 5675 5673 5672 5670 5668 5666 5663 5662 5661 5659 5657 5656 5654 5654 5654 5653 5651 5649 5644 5639 5638 5642 5644 5647 5647 5647 5647 5647 5647 5647 5646 5646 5646 5645 5645 5645 5645 5645 5645 5645 5645
5673 5671 5670 5668 5667 5665 5663 5661 5659 5658 5656 5654 5653 5651 5651 5650 5650 5649 5648 5647 5645 5641 5637 5639 5639 5642 5642 5643 5642 5642 5642 5641 5641 5641 5641 5640 5640 5640 5640 5639 5639 5640 5639
5668 5666 5665 5663 5661 5660 5658 5656 5655 5653 5651 5650 5648 5647 5647 5647 5646 5645 5645 5643 5642 5640 5636 5635 5636 5637 5637 5637 5637 5636 5636 5636 5635 5635 5635 5635 5634 5634 5634 5634 5634 5633 5633
5663 5661 5659 5658 5656 5654 5652 5651 5649 5648 5647 5645 5644 5643 5643 5643 5642 5641 5641 5640 5639 5637 5635 5632 5631 5631 5632 5632 5631 5630 5630 5630 5629 5629 5629 5629 5629 5628 5628 5628 5628 5627 5627
5657 5655 5654 5651 5650 5649 5647 5646 5644 5643 5642 5642 5641 5640 5639 5638 5637 5637 5637 5636 5635 5635 5632 5629 5627 5626 5626 5626 5624 5623 5623 5623 5623 5623 5623 5623 5622 5623 5623 5623 5622 5622 5621
5651 5649 5647 5646 5644 5643 5642 5640 5639 5638 5637 5636 5637 5637 5636 5636 5635 5635 5634 5633 5631 5629 5627 5624 5622 5621 5620 5620 5618 5616 5615 5616 5616 5617 5616 5616 5616 5616 5617 5617 5617 5616 5615
5645 5643 5641 5639 5638 5637 5636 5634 5632 5631 5629 5630 5630 5631 5633 5633 5634 5633 5632 5630 5628 5624 5622 5619 5617 5615 5614 5613 5612 5611 5610 5608 5608 5609 5609 5609 5610 5610 5610 5611 5611 5610 5610
5638 5635 5633 5631 5630 5630 5630 5629 5627 5624 5623 5623 5623 5625 5627 5628 5629 5629 5629 5628 5626 5623 5619 5616 5614 5612 5611 5610 5608 5606 5603 5601 5601 5603 5601 5602 5603 5603 5604 5605 5605 5605 5604
5629 5627 5625 5624 5623 5623 5623 5621 5620 5618 5617 5617 5617 5618 5620 5622 5622 5622 5623 5623 5621 5621 5620 5617 5612 5611 5608 5607 5604 5601 5598 5597 5597 5598 5596 5596 5596 5597 5599 5599 5599 5599 5599
5620 5618 5617 5617 5615 5615 5615 5614 5613 5612 5611 5611 5611 5612 5612 5614 5615 5614 5614 5614 5614 5615 5614 5613 5611 5609 5608 5606 5603 5601 5597 5593 5592 5592 5591 5589 5590 5591 5593 5593 5593 5593 5593
5612 5611 5610 5609 5607 5607 5608 5607 5605 5604 5603 5604 5604 5605 5606 5607 5608 5608 5607 5606 5606 5607 5607 5607 5606 5604 5602 5601 5598 5594 5590 5586 5585 5585 5585 5583 5584 5584 5585 5586 5587 5587 5586
5604 5603 5601 5600 5600 5599 5600 5599 5598 5597 5595 5596 5597 5598 5600 5601 5602 5601 5600 5599 5597 5598 5598 5598 5597 5596 5594 5593 5592 5590 5587 5583 5580 5578 5579 5577 5576 5575 5576 5579 5580 5580 5580